Regional Weather Roundup
Issued by NWS Burlington, VT

Current Version | Previous Version | Text Only | Print | Product List | Glossary On
Versions: 1 2 3 4 5 6 7 8 9 10 11 12 13 14 15 16 17 18 19 20 21 22 23 24 25 26 27 28 29 30 31 32 33 34 35 36 37 38 39 40 41 42 43 44 45 46 47 48 49 50
000
ASUS41 KBTV 030430
RWRBTV
VERMONT REGIONAL WEATHER ROUNDUP
NATIONAL WEATHER SERVICE BURLINGTON VT
1200 AM EDT WED SEP 03 2014

NOTE: "FAIR" INDICATES FEW OR NO CLOUDS BELOW 12,000 FEET WITH NO
SIGNIFICANT WEATHER AND/OR OBSTRUCTIONS TO VISIBILITY.

* THESE REPORTS ARE NOT UNDER NWS QUALITY CONTROL AND/OR DO NOT
  REPORT WEATHER SUCH AS PRECIPITATION AND FOG.

VTZ001>019-030500-
_____VERMONT_____


CITY           SKY/WX    TMP DP  RH WIND       PRES   REMARKS
BURLINGTON     CLOUDY    67  63  87 NW6       29.77R
MONTPELIER     LGT RAIN  64  63  96 CALM      29.80S
MORRISVILLE    LGT RAIN  64  62  93 CALM      29.76F
ST. JOHNSBURY*   N/A     67  66  97 MISG      29.72S
MIDDLEBURY*    MOCLDY    67  67 100 CALM      29.76R
RUTLAND*       CLOUDY    68  66  94 W3        29.77S
SPRINGFIELD    LGT RAIN  70  67  90 VRB3      29.76S
HIGHGATE*      MOCLDY    64  63  97 W3        29.78R
NEWPORT*       RAIN      63  62  94 CALM      29.77R
BENNINGTON     LGT RAIN  69  67  93 CALM      29.79F
MT. MANSFIELD*   N/A     57 N/A N/A NW15        N/A

_____LAKE CHAMPLAIN_____


CITY           SKY/WX    TMP DP  RH WIND       PRES   REMARKS
BURTON ISLAND*   N/A     66  63  88 W10         N/A
COLCHESTER RF*   N/A     66  64  94 N6          N/A
DIAMOND ISL*     N/A     66  64  94 W7          N/A

$$

NYZ007-026>031-035-052-083-030500-
_____NORTHERN NEW YORK_____


CITY           SKY/WX    TMP DP  RH WIND       PRES   REMARKS
PLATTSBURGH    CLOUDY    66  65  96 CALM      29.78R
SARANAC LAKE   CLOUDY    60  59  96 SW6       29.84S
MASSENA        MOCLDY    64  63  96 SW8       29.80R
OGDENSBURG*    CLEAR     64  64 100 SW5       29.82R
POTSDAM*       CLOUDY    64  64 100 SW9       29.82R
WATERTOWN      MOCLDY    67  61  81 SW7       29.85S
FT DRUM        CLOUDY    63  63 100 W7        29.85R
ALBANY         CLOUDY    70  67  90 CALM      29.78F
GLENS FALLS    LGT RAIN  69  68  96 SW5       29.77S

$$
NHZ002-005-011-030500-
_____NEW HAMPSHIRE_____


CITY           SKY/WX    TMP DP  RH WIND       PRES   REMARKS
LEBANON        LGT RAIN  71  67  87 SE5       29.73F
KEENE          MOCLDY    73  64  73 W5        29.75R
MT WASHINGTON  RAIN      57  57 100 W40G48      N/A  VSB 1/16
PLYMOUTH       HVY RAIN  70  70 100 W7        29.72R
WHITEFIELD     LGT RAIN  69  66  90 E3        29.74R FOG

$$

_____REGIONAL QUEBEC LOCATIONS_____


CITY           SKY/WX    TMP DP  RH WIND       PRES   REMARKS
MONTREAL       MOCLDY    66  63  88 W10       29.76R
QUEBEC CITY    LGT RAIN  68  68 100 SW9       29.67S FOG
SHERBROOKE     LGT RAIN  64  64 100 W7        29.74S

_____REGIONAL ONTARIO LOCATIONS_____


CITY           SKY/WX    TMP DP  RH WIND       PRES   REMARKS
OTTAWA         PTCLDY    64  64 100 SW7       29.79R

______KEY______
VSB  - VISIBILITY IN MILES
WCI  - WIND CHILL INDEX
HX   - HEAT INDEX
$$



USA.gov is the U.S. government's official web portal to all federal, state and local government web resources and services.